星链-32709 (STARLINK-32709)

导读 | 豆包AI

STARLINK-32709是美国太空探索技术公司(SpaceX)星链(Starlink)星座的一员,于2024年12月29日发射入轨,运行于近地轨道(LEO),是全球卫星互联网组网的重要组成部分。它依托星链地面关口站实现天地数据中继,旨在为全球尤其是偏远地区提供低延迟、高速率的宽带互联网服务,助力星链扩展星座容量,提升网络服务稳定性。

基本信息
目录编号:
62439
目录名称:
STARLINK-32709
国际标识:
2024-251H
轨道中心:
EARTH
卫星名称:
星链-32709
卫星全名:
星链-32709 (STARLINK-32709)
卫星状态:
在轨 (已飞行486 天)
发射日期:
2024-12-29 UTC
国别 :
美国 (US)
星等 :
--
轨道信息
数据来源 国际轨道数据
星历时间: 2026-04-29T13:46:17+0800
17小时前
查看轨道信息
半长轴: 6853.35km
偏心率: 0.0001191
轨道倾角: 53.157°
近地点辐角 87.728°
升交点赤经 100.808°
平近点角 272.385°
近地点: 474.396km
远地点: 476.03km
周期: 94.105分钟
每日圈数: 15.302008
详细信息
固有亮度:
5
最大亮度:
2.5
卫星平台:
Starlink V1.0
覆盖范围:
全球
运营商:
太空探索技术公司
运营商所在国:
美国
制造商(研发单位):
太空探索技术公司
制造商所在国:
美国
使用方式:
暂无
卫星简介
Starlink 计划是 SpaceX 推出的全球卫星互联网项目,通过发射低轨道卫星,为全球尤其是偏远地区提供高速、低延迟的互联网服务。自 2019 年起,Starlink 已部署数千颗卫星,旨在缩小全球数字鸿沟,推动互联网普及。该项目还为军事、航空等行业提供通信支持,带来广泛经济效益。
2D轨道图
3D轨道图
轨道高度分析图
轨道倾角分析图
轨道综合分析图
查看轨道综合分析图